When you browse on this site, cookies collect data to enhance your experience and personalize the content and advertising you see.
Visit our Privacy Policy to learn more. By continuing to use the site, you agree to this use of cookies and data.
  • In Schweiz
  • Länderverzeichnis
  • Für 7 Tage
  • Wassertemperatur
  • Wetterkarte
  • Widgets
  • user-avatar
    Anmelden

    Stündliche Wetter Hajfong

    Heute, 23 Oktober, Mittwoch

    Zeit Temperatur Niederschläge Wind Luftdruck Luftfeuchtigkeit
    00:00 +27°C° 0 mm 3 m/S 756 mmHg 89%
    01:00 +27°C° 0 mm 3 m/S 755 mmHg 89%
    02:00 +27°C° 0.1 mm 3 m/S 755 mmHg 88%
    03:00 +27°C° 0.1 mm 3 m/S 755 mmHg 88%
    04:00 +27°C° 0.1 mm 3 m/S 755 mmHg 88%
    05:00 +27°C° 0.1 mm 3 m/S 755 mmHg 87%
    06:00 +27°C° 0.1 mm 3 m/S 756 mmHg 86%
    07:00 +28°C° 0.1 mm 3 m/S 756 mmHg 85%
    08:00 +28°C° 0 mm 4 m/S 756 mmHg 83%
    09:00 +29°C° 0 mm 4 m/S 757 mmHg 81%
    10:00 +29°C° 0 mm 4 m/S 757 mmHg 80%
    11:00 +29°C° 0 mm 4 m/S 757 mmHg 78%
    12:00 +29°C° 0 mm 4 m/S 756 mmHg 77%
    13:00 +30°C° 0 mm 5 m/S 755 mmHg 76%
    14:00 +30°C° 0 mm 5 m/S 755 mmHg 76%
    15:00 +30°C° 0 mm 5 m/S 755 mmHg 77%
    16:00 +30°C° 0 mm 5 m/S 756 mmHg 77%
    17:00 +29°C° 0 mm 4 m/S 756 mmHg 79%
    18:00 +28°C° 0 mm 4 m/S 757 mmHg 82%
    19:00 +27°C° 0 mm 3 m/S 757 mmHg 85%
    20:00 +27°C° 0 mm 3 m/S 758 mmHg 86%
    21:00 +27°C° 0 mm 3 m/S 758 mmHg 86%
    22:00 +27°C° 0 mm 3 m/S 759 mmHg 87%
    23:00 +27°C° 0.2 mm 3 m/S 758 mmHg 87%

    Morgen, 24 Oktober, Donnerstag

    Zeit Temperatur Niederschläge Wind Luftdruck Luftfeuchtigkeit
    00:00 +27°C° 0.2 mm 3 m/S 758 mmHg 88%
    01:00 +27°C° 0.2 mm 3 m/S 758 mmHg 88%
    02:00 +26°C° 0.1 mm 3 m/S 758 mmHg 89%
    03:00 +26°C° 0.1 mm 3 m/S 758 mmHg 89%
    04:00 +26°C° 0.1 mm 3 m/S 758 mmHg 90%
    05:00 +26°C° 0.1 mm 4 m/S 759 mmHg 89%
    06:00 +26°C° 0.1 mm 4 m/S 759 mmHg 87%
    07:00 +26°C° 0.1 mm 4 m/S 759 mmHg 86%
    08:00 +27°C° 0 mm 5 m/S 760 mmHg 82%
    09:00 +28°C° 0 mm 5 m/S 760 mmHg 78%
    10:00 +29°C° 0 mm 5 m/S 761 mmHg 75%
    11:00 +29°C° 0 mm 5 m/S 760 mmHg 75%
    12:00 +28°C° 0 mm 5 m/S 759 mmHg 76%
    13:00 +28°C° 0 mm 5 m/S 759 mmHg 76%
    14:00 +28°C° 0 mm 5 m/S 759 mmHg 77%
    15:00 +28°C° 0 mm 5 m/S 758 mmHg 79%
    16:00 +28°C° 0 mm 4 m/S 758 mmHg 80%
    17:00 +27°C° 0 mm 4 m/S 759 mmHg 81%
    18:00 +27°C° 0 mm 4 m/S 759 mmHg 83%
    19:00 +26°C° 0 mm 3 m/S 759 mmHg 84%
    20:00 +27°C° 0 mm 3 m/S 760 mmHg 84%
    21:00 +27°C° 0 mm 3 m/S 760 mmHg 84%
    22:00 +27°C° 0 mm 3 m/S 760 mmHg 83%
    23:00 +26°C° 0.3 mm 3 m/S 760 mmHg 84%

    übermorgen, 25 Oktober, Freitag

    Zeit Temperatur Niederschläge Wind Luftdruck Luftfeuchtigkeit
    00:00 +26°C° 0.3 mm 3 m/S 760 mmHg 85%
    01:00 +26°C° 0.3 mm 3 m/S 760 mmHg 85%
    02:00 +26°C° 0.1 mm 3 m/S 760 mmHg 86%
    03:00 +26°C° 0.1 mm 3 m/S 759 mmHg 86%
    04:00 +26°C° 0.1 mm 3 m/S 759 mmHg 86%
    05:00 +26°C° 0 mm 3 m/S 760 mmHg 86%
    06:00 +26°C° 0 mm 3 m/S 760 mmHg 85%
    07:00 +26°C° 0 mm 3 m/S 760 mmHg 85%
    08:00 +27°C° 0 mm 4 m/S 760 mmHg 80%
    09:00 +28°C° 0 mm 4 m/S 761 mmHg 75%
    10:00 +30°C° 0 mm 5 m/S 761 mmHg 70%
    11:00 +30°C° 0 mm 5 m/S 760 mmHg 69%
    12:00 +30°C° 0 mm 5 m/S 760 mmHg 67%
    13:00 +32°C° 0 mm 6 m/S 759 mmHg 66%
    14:00 +30°C° 0 mm 6 m/S 759 mmHg 68%
    15:00 +30°C° 0 mm 6 m/S 758 mmHg 69%
    16:00 +29°C° 0 mm 6 m/S 758 mmHg 71%
    17:00 +28°C° 0 mm 5 m/S 758 mmHg 75%
    18:00 +28°C° 0 mm 4 m/S 759 mmHg 78%
    19:00 +27°C° 0 mm 3 m/S 759 mmHg 81%
    20:00 +27°C° 0 mm 3 m/S 760 mmHg 82%
    21:00 +27°C° 0 mm 3 m/S 760 mmHg 83%
    22:00 +27°C° 0 mm 3 m/S 760 mmHg 83%
    23:00 +27°C° 0 mm 3 m/S 760 mmHg 84%

    26 Oktober, Samstag

    Zeit Temperatur Niederschläge Wind Luftdruck Luftfeuchtigkeit
    00:00 +26°C° 0 mm 3 m/S 760 mmHg 84%
    01:00 +26°C° 0 mm 4 m/S 760 mmHg 85%
    02:00 +26°C° 0 mm 4 m/S 760 mmHg 85%
    03:00 +26°C° 0 mm 4 m/S 760 mmHg 86%
    04:00 +26°C° 0 mm 4 m/S 760 mmHg 86%
    05:00 +26°C° 0 mm 4 m/S 760 mmHg 85%
    06:00 +26°C° 0 mm 4 m/S 760 mmHg 84%
    07:00 +27°C° 0 mm 4 m/S 761 mmHg 83%
    08:00 +28°C° 0 mm 4 m/S 761 mmHg 78%
    09:00 +29°C° 0 mm 4 m/S 761 mmHg 73%
    10:00 +30°C° 0 mm 5 m/S 762 mmHg 68%
    11:00 +30°C° 0 mm 5 m/S 761 mmHg 67%
    12:00 +32°C° 0 mm 5 m/S 760 mmHg 66%
    13:00 +32°C° 0 mm 5 m/S 759 mmHg 65%
    14:00 +32°C° 0 mm 5 m/S 759 mmHg 67%
    15:00 +30°C° 0 mm 5 m/S 759 mmHg 69%
    16:00 +30°C° 0 mm 5 m/S 759 mmHg 71%
    17:00 +29°C° 0 mm 5 m/S 759 mmHg 75%
    18:00 +28°C° 0 mm 4 m/S 759 mmHg 78%
    19:00 +27°C° 0 mm 4 m/S 760 mmHg 82%
    20:00 +27°C° 0 mm 3 m/S 760 mmHg 82%
    21:00 +27°C° 0 mm 3 m/S 760 mmHg 83%
    22:00 +27°C° 0 mm 3 m/S 761 mmHg 84%
    23:00 +27°C° 0.2 mm 3 m/S 760 mmHg 84%

    27 Oktober, Sonntag

    Zeit Temperatur Niederschläge Wind Luftdruck Luftfeuchtigkeit
    00:00 +26°C° 0.2 mm 3 m/S 760 mmHg 85%
    01:00 +26°C° 0.2 mm 3 m/S 760 mmHg 86%
    02:00 +26°C° 0 mm 3 m/S 760 mmHg 87%
    03:00 +26°C° 0 mm 4 m/S 760 mmHg 87%
    04:00 +26°C° 0 mm 4 m/S 760 mmHg 87%
    05:00 +26°C° 0 mm 4 m/S 760 mmHg 87%
    06:00 +26°C° 0 mm 4 m/S 760 mmHg 86%
    07:00 +26°C° 0 mm 4 m/S 761 mmHg 86%
    08:00 +27°C° 0 mm 4 m/S 761 mmHg 81%
    09:00 +28°C° 0 mm 5 m/S 761 mmHg 75%
    10:00 +29°C° 0 mm 5 m/S 762 mmHg 70%
    11:00 +29°C° 0 mm 5 m/S 761 mmHg 69%
    12:00 +30°C° 0 mm 5 m/S 760 mmHg 67%
    13:00 +30°C° 0 mm 5 m/S 759 mmHg 65%
    14:00 +30°C° 0 mm 5 m/S 759 mmHg 67%
    15:00 +29°C° 0 mm 5 m/S 759 mmHg 69%
    16:00 +29°C° 0 mm 5 m/S 758 mmHg 70%
    17:00 +28°C° 0 mm 4 m/S 759 mmHg 74%
    18:00 +27°C° 0 mm 4 m/S 759 mmHg 78%
    19:00 +26°C° 0 mm 3 m/S 759 mmHg 82%
    20:00 +26°C° 0 mm 3 m/S 760 mmHg 83%
    21:00 +26°C° 0 mm 3 m/S 760 mmHg 84%
    22:00 +26°C° 0 mm 2 m/S 760 mmHg 85%
    23:00 +26°C° 0 mm 3 m/S 760 mmHg 84%

    28 Oktober, Montag

    Zeit Temperatur Niederschläge Wind Luftdruck Luftfeuchtigkeit
    00:00 +26°C° 0 mm 3 m/S 760 mmHg 84%
    01:00 +26°C° 0 mm 3 m/S 760 mmHg 84%
    02:00 +26°C° 0.1 mm 3 m/S 760 mmHg 85%
    03:00 +25°C° 0.1 mm 3 m/S 760 mmHg 85%
    04:00 +25°C° 0.1 mm 3 m/S 760 mmHg 86%
    05:00 +25°C° 0.2 mm 3 m/S 760 mmHg 86%
    06:00 +26°C° 0.2 mm 3 m/S 760 mmHg 85%
    07:00 +26°C° 0.2 mm 3 m/S 761 mmHg 85%
    08:00 +27°C° 0.1 mm 4 m/S 761 mmHg 81%
    09:00 +28°C° 0.1 mm 4 m/S 761 mmHg 78%
    10:00 +28°C° 0.1 mm 4 m/S 761 mmHg 74%
    11:00 +29°C° 0.1 mm 4 m/S 761 mmHg 73%
    12:00 +29°C° 0.1 mm 4 m/S 760 mmHg 71%
    13:00 +29°C° 0.1 mm 4 m/S 759 mmHg 69%
    14:00 +29°C° 0.1 mm 4 m/S 759 mmHg 71%
    15:00 +29°C° 0.1 mm 4 m/S 759 mmHg 73%
    16:00 +28°C° 0.1 mm 4 m/S 758 mmHg 75%
    17:00 +28°C° 0 mm 3 m/S 759 mmHg 77%
    18:00 +27°C° 0 mm 3 m/S 759 mmHg 79%
    19:00 +27°C° 0 mm 3 m/S 760 mmHg 81%
    20:00 +27°C° 0 mm 2 m/S 760 mmHg 81%
    21:00 +27°C° 0 mm 2 m/S 760 mmHg 81%
    22:00 +27°C° 0 mm 2 m/S 761 mmHg 81%
    23:00 +26°C° 0 mm 2 m/S 761 mmHg 82%

    29 Oktober, Dienstag

    Zeit Temperatur Niederschläge Wind Luftdruck Luftfeuchtigkeit
    00:00 +26°C° 0 mm 2 m/S 760 mmHg 83%
    01:00 +25°C° 0 mm 2 m/S 760 mmHg 84%
    02:00 +25°C° 0 mm 2 m/S 760 mmHg 85%
    03:00 +25°C° 0 mm 2 m/S 760 mmHg 85%
    04:00 +25°C° 0 mm 2 m/S 760 mmHg 85%
    05:00 +25°C° 0 mm 2 m/S 761 mmHg 84%
    06:00 +25°C° 0 mm 2 m/S 761 mmHg 83%
    07:00 +25°C° 0 mm 2 m/S 761 mmHg 82%
    08:00 +26°C° 0 mm 2 m/S 762 mmHg 77%
    09:00 +27°C° 0 mm 2 m/S 762 mmHg 71%
    10:00 +28°C° 0 mm 2 m/S 762 mmHg 66%
    11:00 +29°C° 0 mm 2 m/S 761 mmHg 62%
    12:00 +30°C° 0 mm 2 m/S 761 mmHg 59%
    13:00 +31°C° 0 mm 2 m/S 760 mmHg 55%
    14:00 +30°C° 0 mm 2 m/S 760 mmHg 58%
    15:00 +30°C° 0 mm 2 m/S 759 mmHg 61%
    16:00 +29°C° 0 mm 3 m/S 759 mmHg 64%
    17:00 +28°C° 0 mm 2 m/S 760 mmHg 66%
    18:00 +27°C° 0 mm 2 m/S 760 mmHg 68%
    19:00 +26°C° 0 mm 2 m/S 761 mmHg 70%
    20:00 +26°C° 0 mm 2 m/S 761 mmHg 71%
    21:00 +25°C° 0 mm 2 m/S 761 mmHg 71%
    22:00 +25°C° 0 mm 2 m/S 761 mmHg 71%
    23:00 +24°C° 0 mm 2 m/S 761 mmHg 72%
    Mehr zeigen